Vorticity
6 6 6 7 7 7 7 7 7 7 6 6 6 6 6 6 5 5 5 5 5 5 5 5 6 8 7 6 8 10 8 7 12 11 4 4 5 7 10 8 7 6 4 3 5 6 5 4 3 3 4 4 4 3 5 6 6 5 4 3 3 5 7 6 6 7 7 10 11 5 4 6 5 4 7 13 13 7 4 6 8 7 6 8 9 11 11 7
6 6 7 6 7 7 7 7 7 7 7 7 7 6 6 6 6 6 5 5 5 5 5 5 5 5 7 8 6 8 11 7 7 11 8 4 1 3 6 6 6 6 6 6 4 4 4 2 2 2 2 1 2 2 4 6 6 5 4 3 3 6 5 5 8 6 4 6 9 5 2 7 5 3 8 13 12 6 4 7 8 9 8 7 7 9 12 8
5 5 6 6 6 6 7 7 6 7 7 7 7 7 7 7 7 7 7 6 5 5 5 5 5 4 5 8 8 6 8 9 8 8 9 11 8 4 5 5 6 6 6 5 4 4 3 0 2 4 2 3 4 2 5 8 7 5 3 2 3 6 6 7 8 7 3 -4 5 8 0 7 6 2 11 13 8 3 2 4 5 9 9 9 9 9 12 10
4 4 4 4 5 5 6 6 6 7 7 7 7 6 7 7 7 8 8 7 7 6 6 6 5 5 4 5 8 7 6 6 9 10 6 9 13 12 7 3 5 6 6 5 5 5 3 4 6 6 4 5 5 5 8 8 8 7 2 3 7 8 7 2 0 4 6 -2 1 7 1 7 4 -1 11 8 2 3 3 6 6 6 7 8 10 11 11 9
3 3 3 3 3 4 4 5 5 6 6 7 7 6 6 6 7 7 8 8 8 8 7 7 6 5 5 4 5 7 8 4 5 9 8 6 10 15 12 6 4 5 7 6 5 5 5 8 8 8 8 5 5 9 10 5 7 8 2 5 8 9 5 0 6 8 3 2 3 3 1 5 5 2 10 5 2 8 6 9 8 4 7 9 10 12 12 10
3 3 3 2 3 2 3 3 3 4 5 5 6 6 6 6 6 6 7 7 8 8 9 9 8 6 5 5 4 5 7 6 4 6 8 7 6 10 12 10 7 4 5 6 6 5 4 6 7 11 12 8 9 10 7 6 8 7 2 3 5 9 6 -0 12 13 2 4 3 2 2 4 5 2 5 6 4 8 7 10 8 1 5 8 8 9 12 12
5 5 5 4 4 3 3 3 2 2 3 4 4 5 6 6 6 6 6 6 6 7 8 9 9 9 7 5 5 5 5 5 7 7 6 5 4 7 10 10 9 6 4 3 5 5 4 4 5 8 11 10 12 9 5 7 9 7 4 4 3 9 8 -1 6 9 2 2 2 3 5 4 6 2 6 11 5 4 5 7 7 1 4 8 8 9 10 11
6 6 6 6 6 5 5 5 4 3 2 3 2 3 4 4 5 6 6 6 6 6 6 8 9 10 10 8 6 5 4 4 5 8 8 5 4 6 9 11 10 10 7 4 4 4 5 5 5 5 8 10 10 8 4 6 11 11 8 6 5 6 6 4 5 3 -2 2 5 7 7 5 8 6 9 11 3 4 5 4 8 5 6 11 11 9 10 11
7 7 7 7 7 6 6 6 6 6 5 4 3 3 2 2 4 5 6 6 6 5 5 6 7 9 10 10 9 7 5 6 5 5 8 7 6 7 8 9 10 12 11 8 4 3 5 6 6 6 7 8 8 7 2 6 13 11 8 6 6 5 3 4 6 4 0 3 8 8 6 3 6 4 3 7 3 4 4 0 9 11 7 10 11 8 9 12
9 9 9 9 8 8 7 7 7 6 7 6 6 5 3 3 2 2 4 5 6 5 6 5 5 7 9 10 11 10 8 7 5 4 8 7 6 7 8 8 8 10 13 13 9 5 4 4 4 4 4 5 6 6 2 7 11 6 7 6 6 6 2 1 4 8 4 2 4 4 3 2 10 7 -2 5 6 1 3 2 7 9 3 4 9 8 6 10
11 11 11 11 10 10 10 9 8 7 7 7 6 7 6 5 4 3 2 3 4 4 5 6 6 6 7 9 10 11 10 9 7 4 6 8 6 4 6 8 7 8 10 12 13 10 4 2 3 3 3 5 7 6 3 6 6 5 8 7 6 4 0 -0 1 6 6 5 4 2 2 0 10 8 -6 3 7 0 3 3 4 7 6 3 6 9 6 9
11 11 11 12 12 12 12 12 11 11 10 8 8 7 7 7 6 6 3 3 3 2 4 5 6 5 5 7 7 8 9 10 10 5 3 5 7 4 3 7 7 7 8 9 12 12 9 4 3 4 4 5 6 6 7 6 5 6 7 6 7 4 2 2 1 2 1 5 6 4 3 -1 5 3 -7 7 12 4 3 -0 -0 7 11 7 7 10 8 9
10 10 10 10 11 11 11 12 12 13 12 12 11 9 8 7 7 7 6 6 4 2 3 3 5 5 6 8 4 5 8 10 12 10 6 4 6 6 3 4 6 6 6 7 9 10 11 7 4 5 4 3 4 6 8 5 4 6 7 7 6 3 5 6 6 6 1 3 5 5 4 3 9 4 3 16 10 1 2 -2 -2 6 11 7 6 9 7 8
7 7 7 7 8 9 9 10 10 11 12 13 13 12 12 10 8 7 6 7 6 6 4 2 4 4 8 9 3 2 6 8 10 10 10 7 5 7 5 3 4 6 5 5 8 9 11 9 6 5 5 4 4 5 6 4 1 2 5 9 7 5 8 10 11 9 3 3 3 3 3 4 5 3 10 13 -2 0 6 -2 1 8 11 6 0 5 6 6
6 6 6 6 7 7 7 7 8 8 9 10 12 13 13 12 12 11 9 7 6 7 6 5 4 2 8 9 1 1 5 6 7 7 8 8 6 7 7 4 2 4 6 5 6 8 9 10 9 7 6 6 3 3 6 6 3 0 2 7 11 9 9 12 14 11 2 -1 5 7 8 9 4 3 10 4 -3 11 11 -2 1 7 10 7 -0 5 9 6
6 6 6 6 7 7 7 7 7 7 7 8 9 10 11 12 13 13 12 11 9 7 6 7 7 4 7 8 1 2 5 3 4 8 8 9 9 8 8 6 3 2 4 6 6 6 8 8 9 9 8 5 4 4 6 6 4 3 2 5 10 11 9 6 8 21 14 -1 2 7 7 4 -2 3 10 10 9 11 4 -4 -4 -0 6 7 4 7 8 5
8 7 6 6 5 5 6 6 6 7 7 7 7 8 9 10 11 12 13 14 13 11 9 7 7 7 6 6 3 3 5 4 4 6 8 9 8 8 9 9 7 4 3 4 4 5 6 7 9 10 9 7 7 6 3 4 6 6 6 5 7 8 9 1 -0 21 23 6 3 6 8 3 -2 1 3 8 7 -3 -2 0 -1 3 8 8 8 7 4 4
9 9 10 9 8 7 6 5 5 4 5 6 6 7 8 8 9 9 10 13 13 13 13 11 8 8 8 8 7 4 2 4 5 4 6 7 7 8 10 11 9 6 4 4 4 5 5 6 8 9 10 9 10 10 5 5 7 8 7 6 6 6 8 5 2 9 11 10 10 7 7 6 4 4 1 3 2 1 6 2 3 10 11 12 13 9 4 4
7 7 8 8 9 10 9 9 7 6 5 5 5 5 6 8 8 7 7 10 11 12 14 14 12 9 9 10 9 8 5 3 5 5 4 5 6 7 7 10 11 8 6 5 4 5 5 6 6 7 9 11 11 10 8 7 4 5 7 7 6 6 8 8 8 7 4 8 12 12 12 6 2 4 4 1 2 11 10 -1 3 7 2 4 9 9 7 5
9 8 8 8 8 8 9 9 9 9 8 8 8 6 6 5 5 6 6 4 6 10 12 13 15 12 11 14 11 10 8 5 5 6 4 3 3 5 5 6 9 10 9 7 5 5 6 6 5 5 6 10 12 9 10 9 4 2 4 7 7 6 8 8 9 8 6 5 9 19 21 8 -1 0 1 2 10 15 4 -4 1 -0 -3 -1 2 8 10 6
11 12 12 12 11 11 10 9 9 9 8 9 9 9 9 7 6 6 5 6 9 10 7 8 14 12 10 16 16 12 10 8 7 6 5 4 2 3 4 5 6 10 13 10 7 5 6 6 6 8 6 6 10 11 12 11 6 4 2 4 6 5 8 11 10 9 6 6 7 9 9 2 -0 4 3 3 10 3 -8 -2 -0 -4 -0 -0 -0 5 8 8
13 13 13 13 15 14 13 13 12 11 11 10 9 10 10 9 9 8 7 10 10 7 3 4 10 10 7 11 14 14 10 9 9 7 6 6 4 3 3 4 5 8 13 12 8 6 5 6 8 8 5 4 7 10 13 12 10 8 4 4 4 5 9 8 4 5 10 13 10 3 -0 -2 -4 3 7 4 4 -7 -12 2 0 -2 3 -2 -1 4 6 10
12 13 12 12 14 14 14 15 14 14 14 13 12 12 11 11 11 9 11 10 5 3 5 5 5 6 7 8 12 13 10 10 11 8 9 7 6 6 3 2 4 4 8 10 10 10 6 7 11 8 4 4 6 8 10 13 13 9 7 6 4 5 8 9 5 1 5 11 9 1 3 4 -6 -4 6 4 4 3 2 8 4 4 2 -5 2 7 8 11
11 12 13 11 14 16 14 14 17 16 14 14 16 14 12 12 11 10 12 14 11 8 6 6 5 4 5 7 11 12 9 10 12 9 9 8 7 8 5 2 3 3 5 7 11 13 9 6 8 7 6 6 6 8 9 10 12 11 10 8 7 5 3 14 20 8 1 3 2 -4 -1 9 3 -3 0 -6 -3 10 13 16 17 12 1 -2 11 11 6 8
12 13 15 13 14 17 16 16 19 18 16 15 17 19 17 16 16 14 9 11 17 14 10 10 9 6 5 6 9 11 8 8 12 13 11 9 7 8 7 5 4 2 3 4 6 10 11 10 8 4 6 8 7 9 10 10 10 11 12 11 9 6 1 11 24 15 2 -3 -2 -3 -5 5 5 -3 -3 -8 -2 13 13 10 12 9 2 5 15 6 -4 5
16 16 17 16 15 16 19 20 19 21 23 21 19 20 20 19 21 19 10 12 20 15 12 14 11 10 9 7 6 8 11 8 9 14 14 11 10 9 8 7 4 3 3 3 4 6 10 12 9 4 4 7 8 8 8 10 10 11 16 17 12 7 2 7 20 15 -2 -7 1 3 -0 7 7 -2 -3 -5 -1 8 9 9 5 4 8 10 9 -1 -5 4
18 18 19 20 18 17 20 20 18 20 23 24 24 23 24 24 26 23 11 17 28 19 13 17 15 14 13 10 8 7 10 12 11 14 14 12 14 12 9 8 6 4 3 3 3 5 8 11 11 6 4 5 6 7 6 8 10 8 14 20 16 11 3 4 17 15 -0 -0 9 3 -3 8 10 2 0 -0 -0 1 6 12 8 8 16 11 2 0 0 2
19 20 21 22 23 20 17 17 19 20 16 17 21 24 28 28 31 31 18 22 34 23 15 19 20 20 15 12 13 9 7 13 15 14 12 10 14 17 13 11 10 6 4 3 3 5 6 10 12 8 7 6 5 7 9 9 9 5 9 18 19 14 6 3 12 17 10 5 9 3 -5 1 6 4 5 4 2 -2 -1 3 2 2 8 5 2 7 3 -2
16 19 20 19 18 15 12 11 13 15 13 14 16 18 20 17 23 31 26 29 36 26 19 22 22 25 22 16 17 16 13 14 10 5 7 6 7 13 15 14 15 12 8 4 0 2 4 6 10 9 9 8 3 4 9 10 8 6 6 13 19 18 11 6 7 15 15 3 1 4 -1 -2 1 2 4 3 4 6 2 1 2 -1 3 12 12 9 2 -2
13 15 14 9 6 7 9 11 13 16 18 19 18 15 10 8 15 21 21 28 33 32 32 29 23 25 29 27 23 18 15 17 13 5 9 9 4 7 8 9 17 16 12 10 4 1 2 3 6 9 10 8 3 2 7 8 7 9 8 8 17 20 14 8 8 14 12 -1 -5 -2 -2 2 2 1 1 -5 -5 5 3 -1 5 3 8 25 24 14 14 12
11 9 7 6 9 13 16 17 18 19 19 19 13 5 0 3 9 11 14 20 23 27 32 31 27 25 28 29 22 15 13 19 23 12 4 5 6 9 4 1 11 15 10 10 7 3 3 3 3 6 9 8 6 5 4 4 5 9 9 7 13 20 17 9 7 11 5 -4 -4 -3 -1 2 -4 -4 5 -1 -9 0 5 2 2 -0 4 24 30 19 14 12
9 7 7 10 13 17 19 17 14 11 9 8 3 -0 -0 1 5 7 9 13 19 23 26 30 30 24 24 25 19 18 19 19 24 19 3 -3 0 3 5 3 4 12 16 10 4 4 5 4 2 3 7 8 7 6 4 2 4 8 9 6 8 17 19 9 1 4 2 -4 -1 3 1 -5 -15 -11 7 11 1 -2 2 3 4 4 1 10 24 18 4 2
7 7 9 10 8 9 12 13 12 9 6 4 2 2 3 4 8 12 8 6 13 16 19 30 34 23 20 26 25 25 26 21 19 24 21 14 10 6 7 11 7 7 13 10 8 12 7 4 5 3 4 8 8 7 5 2 2 5 7 4 2 5 9 8 2 -2 -1 1 6 7 -2 -12 -16 -12 7 19 11 1 -0 2 8 11 1 -3 11 17 8 4
9 10 9 7 7 7 7 9 10 11 11 10 9 7 6 8 12 13 9 7 11 9 10 24 38 31 19 22 27 23 23 25 21 22 24 19 17 16 7 9 20 20 15 13 16 18 11 6 8 4 2 5 9 9 5 5 6 5 6 5 5 4 4 13 14 2 2 12 18 10 -10 -13 -6 -4 12 23 10 6 7 4 7 8 -0 -5 3 15 13 3
8 9 7 7 11 12 8 8 10 14 16 16 16 14 13 14 14 13 11 10 9 7 5 12 28 37 27 18 22 19 12 19 26 23 21 15 12 19 9 -6 1 9 7 16 21 18 19 14 3 4 7 3 7 11 5 4 7 6 5 5 6 7 7 15 20 13 12 13 16 8 -13 -5 9 -0 10 18 1 1 5 -3 1 5 2 -4 -4 13 18 2
10 12 12 10 10 8 7 10 12 16 18 17 16 18 17 15 14 15 15 13 11 8 4 6 14 29 39 27 17 22 14 9 25 26 18 19 14 16 19 5 -3 -5 -5 6 7 5 19 17 -3 2 14 6 2 10 10 6 6 5 6 4 4 8 10 12 14 17 19 9 10 10 -6 4 17 4 11 14 -6 -2 0 -11 -5 1 3 3 -5 4 12 3
13 13 12 11 10 11 14 18 20 20 20 17 14 13 12 12 12 12 14 14 13 11 6 8 9 12 38 45 19 20 27 12 18 27 17 16 16 14 18 15 12 11 7 10 6 5 18 12 -5 -0 9 7 1 4 12 13 7 5 6 4 5 9 9 10 8 11 16 10 11 14 3 6 12 6 20 18 -2 3 2 -8 -1 -2 -3 5 2 4 11 9
15 16 20 23 21 18 17 17 17 19 20 17 13 11 8 10 13 11 12 12 11 14 12 13 15 1 21 57 35 8 26 24 10 15 18 14 12 15 18 14 13 12 10 10 4 9 20 9 1 6 3 3 5 3 10 14 8 6 7 4 5 6 3 6 6 6 10 10 9 14 13 15 12 10 24 24 12 17 9 -6 1 3 0 2 2 8 14 12
27 26 26 25 19 16 15 14 13 14 17 15 10 11 8 9 14 14 16 17 12 16 15 12 20 5 -1 45 57 12 7 31 17 0 12 19 9 9 16 14 15 16 19 18 3 5 20 11 5 11 3 -1 9 13 11 10 8 6 5 4 5 7 6 6 5 2 6 9 6 8 14 19 18 14 21 22 21 28 23 10 12 19 20 12 4 11 17 17
25 20 19 20 19 21 22 25 29 26 21 18 13 12 11 13 20 17 13 16 14 14 16 8 13 14 -5 21 69 41 -6 16 31 0 -3 19 15 8 11 10 11 14 20 24 10 1 14 17 6 6 5 -3 0 14 13 6 6 5 3 3 3 5 7 6 6 3 2 5 6 8 11 11 9 6 9 18 23 26 25 20 18 22 26 21 16 19 20 20
20 18 17 13 7 8 13 18 30 37 30 26 26 20 17 19 23 20 12 13 14 8 13 9 3 15 8 8 62 69 4 -6 24 7 -8 10 14 10 12 10 11 13 16 24 20 5 10 20 8 -1 7 3 -6 5 8 2 4 5 5 7 3 2 4 4 6 5 2 3 5 8 10 7 7 7 6 13 22 22 16 13 10 11 16 18 21 24 17 15
18 10 3 -1 -4 3 14 12 16 30 28 25 31 27 24 26 21 17 13 12 13 8 8 10 3 10 14 13 50 73 30 0 7 0 -7 3 10 15 15 10 11 11 10 20 24 11 9 18 7 -5 7 11 4 5 1 -2 8 10 8 12 10 5 3 3 4 4 4 5 4 8 11 7 8 13 11 6 12 20 19 14 9 6 11 18 23 22 11 9
9 0 -9 -4 6 11 16 15 13 22 22 20 27 28 25 25 15 10 12 9 11 11 7 8 6 5 11 18 34 48 41 28 16 2 -4 -3 5 19 19 10 13 14 7 13 21 13 12 19 9 -2 8 14 13 12 -1 -8 5 14 12 12 14 11 4 3 4 4 6 7 5 8 7 1 3 14 19 11 6 15 19 13 8 3 6 17 25 22 11 9
5 5 -6 -6 10 14 11 17 18 18 21 24 27 25 20 18 10 8 12 9 9 13 10 9 8 6 14 20 23 28 33 40 45 29 3 -8 0 17 19 10 13 18 11 10 17 11 12 21 11 2 14 24 24 23 12 -2 1 14 17 11 10 11 9 8 6 6 11 9 8 11 6 -0 2 8 18 20 11 9 10 8 7 5 5 11 17 18 15 15
2 7 2 -4 7 14 10 15 18 15 22 32 30 26 23 18 11 9 9 8 11 14 12 12 9 8 16 16 15 23 22 35 67 52 -0 -16 -1 13 18 12 10 20 15 8 14 12 10 18 11 1 8 16 17 13 7 1 -2 5 16 16 11 9 9 9 3 3 8 5 6 12 6 3 6 5 11 21 17 9 7 8 8 7 7 12 15 15 15 17
3 6 6 1 5 12 11 13 17 15 20 32 32 28 26 17 9 11 13 13 16 16 13 14 10 8 17 16 12 17 13 27 68 60 5 -12 1 7 17 18 10 18 19 8 9 14 12 13 11 4 -1 2 10 9 3 4 2 -4 1 12 17 15 9 7 6 3 3 3 6 9 7 8 11 7 4 10 12 9 8 10 11 8 7 14 21 17 14 15
15 10 4 5 10 15 12 9 14 16 19 30 32 27 27 22 15 16 16 12 12 14 12 11 11 11 15 15 13 15 13 21 53 61 29 8 3 -2 15 29 18 14 20 14 8 11 14 12 11 10 5 6 14 15 9 9 9 3 -2 2 15 21 11 5 9 8 4 8 8 2 7 15 12 5 0 -1 4 8 6 6 8 6 6 15 25 20 11 11
22 16 5 6 12 16 14 9 10 15 21 26 27 25 25 22 19 18 14 10 12 16 10 4 11 19 14 11 13 14 14 18 34 53 50 31 9 -8 3 31 31 15 13 16 11 8 9 13 15 10 8 13 13 10 12 10 7 7 2 -2 10 22 15 4 7 10 8 12 10 -2 6 18 10 3 4 -0 -1 2 2 0 -2 -5 -3 7 20 19 8 9
20 16 8 6 10 15 17 13 9 12 20 25 25 24 19 13 15 18 11 4 6 13 11 5 10 19 14 11 14 13 16 19 23 41 57 47 19 -10 -11 22 40 30 19 13 7 8 7 9 18 12 6 11 8 2 11 11 3 6 5 -1 4 17 20 9 3 9 10 7 6 2 9 21 12 0 4 6 2 -1 -1 -1 -4 -5 -1 2 13 19 10 7
19 16 9 6 8 11 15 16 12 11 18 25 26 24 18 11 12 14 10 5 4 6 13 14 16 19 14 12 13 11 17 21 18 32 56 58 32 -6 -20 3 28 37 40 25 1 1 9 8 14 16 7 6 3 1 12 12 3 5 6 -1 -3 7 22 19 3 4 10 4 5 7 10 23 25 6 -4 1 3 1 -1 -1 -1 1 2 1 11 23 15 6
20 17 10 7 8 10 13 17 17 12 13 22 26 23 17 14 15 12 9 11 11 11 14 16 16 16 13 11 11 10 13 16 16 26 51 65 47 4 -25 -16 6 23 47 51 17 -5 4 9 12 17 9 -0 -3 -1 12 17 9 7 5 -1 -6 -5 16 32 13 0 10 10 10 15 7 11 27 22 7 1 -0 -1 -1 -1 0 3 3 3 12 22 18 10
18 17 10 7 10 11 12 17 21 15 12 19 26 24 15 13 18 17 10 9 11 14 17 18 17 17 15 11 11 10 9 12 13 18 41 64 55 16 -20 -24 -6 6 27 59 50 11 -1 7 13 17 7 -4 -7 -7 7 19 16 12 6 -0 -1 -9 2 32 24 2 9 12 10 22 14 -1 11 22 19 16 9 1 -0 0 1 4 5 7 12 18 18 13
Height
5887 5886 5886 5885 5885 5885 5884 5884 5884 5884 5883 5883 5883 5883 5883 5883 5882 5881 5881 5881 5881 5882 5882 5882 5882 5882 5882 5882 5882 5882 5882 5882 5883 5883 5882 5883 5885 5887 5889 5889 5889 5891 5892 5893 5895 5895 5895 5896 5897 5898 5899 5900 5900 5901 5902 5903 5903 5903 5904 5904 5905 5905 5904 5903 5902 5902 5903 5904 5905 5906 5907 5907 5907 5907 5908 5907 5906 5906 5906 5908 5909 5909 5910 5911 5912 5912 5913 5913
5884 5884 5883 5883 5883 5882 5882 5882 5882 5881 5881 5881 5881 5880 5881 5881 5880 5880 5879 5879 5879 5880 5880 5880 5880 5880 5880 5881 5881 5881 5881 5880 5880 5880 5881 5883 5885 5885 5886 5887 5888 5889 5890 5892 5892 5893 5893 5894 5895 5896 5897 5898 5899 5900 5901 5902 5903 5903 5903 5904 5904 5904 5904 5903 5902 5902 5901 5902 5903 5905 5907 5908 5908 5908 5908 5907 5906 5906 5907 5908 5909 5910 5910 5911 5912 5912 5912 5913
5882 5881 5881 5880 5880 5880 5880 5879 5879 5879 5879 5878 5878 5878 5878 5878 5878 5878 5878 5877 5877 5877 5878 5879 5879 5878 5879 5879 5879 5879 5879 5879 5878 5878 5880 5882 5882 5883 5883 5885 5886 5887 5888 5889 5890 5891 5891 5891 5893 5895 5896 5897 5898 5899 5900 5901 5902 5902 5903 5903 5904 5904 5903 5902 5901 5901 5901 5901 5902 5904 5906 5908 5908 5908 5908 5908 5906 5906 5907 5909 5910 5910 5910 5911 5911 5912 5912 5913
5880 5879 5878 5878 5877 5877 5877 5877 5876 5876 5876 5876 5876 5875 5875 5875 5875 5875 5876 5875 5875 5875 5876 5877 5877 5877 5877 5877 5878 5878 5878 5877 5876 5877 5879 5880 5880 5880 5881 5882 5883 5884 5885 5886 5887 5888 5888 5890 5892 5893 5894 5895 5897 5898 5899 5901 5901 5901 5901 5902 5903 5903 5903 5902 5901 5901 5901 5901 5901 5903 5905 5907 5908 5907 5906 5907 5907 5907 5907 5909 5910 5910 5910 5911 5911 5912 5912 5913
5877 5876 5876 5875 5875 5874 5874 5874 5873 5873 5873 5873 5873 5872 5872 5872 5872 5873 5873 5873 5873 5873 5873 5874 5875 5875 5875 5875 5876 5876 5876 5875 5874 5876 5878 5878 5877 5878 5879 5879 5880 5881 5882 5884 5885 5886 5887 5889 5890 5892 5893 5894 5895 5897 5898 5899 5900 5900 5900 5901 5902 5902 5902 5902 5901 5901 5902 5901 5901 5902 5905 5906 5906 5906 5905 5906 5908 5907 5907 5908 5909 5910 5910 5910 5911 5912 5912 5912
5874 5873 5873 5873 5872 5872 5871 5871 5870 5870 5870 5870 5870 5869 5869 5869 5869 5870 5870 5870 5870 5870 5871 5872 5872 5873 5873 5873 5873 5874 5874 5872 5872 5875 5876 5875 5875 5875 5876 5877 5878 5879 5881 5882 5883 5883 5885 5887 5889 5890 5891 5892 5894 5895 5896 5897 5898 5899 5899 5900 5901 5901 5901 5902 5901 5901 5901 5901 5901 5902 5904 5904 5904 5905 5906 5907 5907 5907 5907 5908 5909 5909 5910 5910 5911 5911 5912 5912
5870 5870 5869 5869 5869 5869 5868 5868 5867 5867 5867 5867 5866 5866 5866 5866 5866 5867 5867 5867 5867 5868 5868 5869 5870 5870 5871 5871 5871 5871 5871 5871 5871 5872 5873 5873 5873 5873 5874 5875 5876 5877 5879 5880 5880 5881 5883 5885 5888 5889 5889 5891 5892 5892 5892 5895 5896 5897 5898 5899 5900 5900 5900 5901 5901 5900 5901 5902 5901 5901 5903 5904 5905 5906 5906 5907 5907 5907 5908 5909 5909 5909 5910 5910 5911 5911 5911 5912
5867 5866 5865 5865 5865 5865 5864 5864 5864 5864 5863 5863 5863 5863 5863 5862 5863 5863 5864 5864 5864 5865 5865 5866 5867 5867 5868 5868 5869 5868 5867 5870 5871 5869 5870 5871 5871 5872 5873 5874 5874 5875 5876 5877 5878 5879 5880 5883 5886 5887 5888 5889 5889 5889 5889 5892 5895 5896 5897 5897 5898 5898 5899 5900 5901 5901 5901 5901 5901 5901 5903 5903 5905 5906 5906 5906 5906 5907 5908 5909 5910 5910 5910 5910 5911 5911 5911 5911
5863 5862 5862 5861 5861 5860 5860 5860 5860 5860 5860 5860 5860 5860 5859 5859 5859 5860 5860 5861 5861 5861 5862 5863 5863 5864 5865 5866 5866 5865 5864 5868 5869 5867 5867 5868 5870 5870 5871 5872 5873 5873 5873 5874 5875 5876 5879 5882 5884 5885 5886 5886 5886 5887 5887 5890 5893 5894 5895 5895 5896 5896 5897 5898 5899 5900 5900 5901 5901 5901 5902 5902 5904 5905 5905 5905 5906 5907 5908 5909 5909 5910 5909 5910 5910 5910 5911 5911
5859 5858 5858 5857 5857 5856 5856 5856 5855 5855 5855 5855 5855 5856 5855 5855 5855 5856 5857 5857 5858 5858 5858 5860 5860 5862 5862 5863 5864 5861 5862 5865 5866 5865 5864 5865 5867 5868 5868 5870 5870 5871 5871 5872 5873 5875 5878 5879 5880 5881 5882 5882 5884 5885 5885 5889 5892 5891 5891 5892 5893 5894 5894 5895 5897 5899 5899 5900 5900 5900 5900 5900 5902 5905 5905 5906 5906 5907 5908 5908 5909 5909 5909 5910 5910 5910 5911 5911
5855 5854 5854 5853 5853 5852 5852 5851 5851 5851 5851 5851 5851 5851 5851 5851 5851 5852 5852 5853 5854 5854 5855 5856 5857 5858 5859 5861 5860 5857 5858 5862 5863 5864 5863 5862 5864 5866 5866 5867 5867 5868 5868 5870 5871 5873 5874 5875 5876 5877 5878 5880 5882 5882 5884 5887 5888 5888 5889 5890 5891 5891 5891 5893 5895 5897 5897 5898 5899 5899 5899 5899 5901 5904 5906 5907 5906 5906 5907 5908 5909 5909 5910 5910 5910 5910 5910 5911
5851 5850 5850 5849 5848 5848 5847 5847 5846 5846 5846 5846 5846 5846 5846 5847 5847 5847 5848 5849 5850 5850 5851 5852 5853 5855 5856 5858 5856 5853 5856 5859 5860 5861 5861 5860 5860 5862 5863 5864 5864 5865 5866 5867 5868 5869 5871 5872 5872 5874 5877 5878 5879 5880 5883 5885 5886 5886 5887 5888 5889 5889 5889 5891 5892 5894 5896 5896 5897 5898 5897 5897 5899 5903 5905 5906 5905 5905 5906 5907 5908 5909 5910 5910 5910 5910 5910 5910
5847 5846 5846 5844 5844 5843 5843 5842 5842 5841 5841 5841 5841 5841 5841 5842 5842 5843 5843 5844 5845 5846 5847 5848 5849 5851 5853 5855 5851 5850 5853 5855 5858 5860 5859 5857 5857 5858 5860 5861 5861 5862 5863 5864 5865 5865 5867 5868 5869 5872 5874 5874 5876 5878 5880 5881 5882 5883 5884 5886 5887 5888 5889 5890 5890 5892 5894 5895 5896 5896 5896 5895 5896 5900 5905 5904 5903 5904 5905 5906 5907 5908 5909 5910 5910 5909 5909 5910
5843 5842 5841 5840 5839 5839 5838 5838 5837 5836 5836 5836 5836 5836 5836 5837 5837 5838 5838 5839 5840 5841 5842 5843 5845 5846 5850 5852 5846 5845 5851 5853 5855 5856 5854 5853 5853 5855 5856 5858 5859 5859 5860 5861 5861 5862 5863 5864 5866 5868 5869 5871 5874 5875 5876 5877 5878 5880 5881 5883 5884 5886 5888 5889 5889 5890 5892 5893 5894 5895 5895 5894 5893 5897 5903 5903 5902 5904 5905 5906 5907 5908 5909 5910 5910 5909 5909 5909
5839 5838 5837 5836 5835 5834 5833 5833 5832 5831 5831 5831 5830 5830 5831 5831 5832 5833 5833 5834 5834 5835 5836 5838 5841 5842 5846 5848 5841 5842 5847 5849 5851 5849 5849 5850 5850 5852 5852 5854 5856 5857 5857 5858 5858 5860 5860 5861 5862 5864 5867 5870 5870 5871 5873 5875 5875 5876 5878 5880 5883 5885 5887 5887 5888 5889 5890 5891 5893 5894 5895 5894 5892 5895 5900 5902 5902 5904 5905 5906 5906 5907 5908 5909 5910 5909 5909 5908
5835 5834 5833 5831 5830 5829 5828 5828 5827 5826 5826 5825 5825 5825 5825 5826 5827 5828 5828 5828 5828 5829 5831 5832 5835 5837 5841 5843 5838 5838 5841 5843 5845 5845 5847 5848 5848 5849 5849 5850 5853 5854 5855 5855 5856 5856 5856 5857 5859 5862 5864 5865 5865 5869 5872 5872 5872 5874 5877 5880 5882 5884 5885 5886 5887 5887 5888 5889 5890 5893 5895 5894 5891 5894 5899 5901 5903 5904 5905 5906 5906 5906 5907 5908 5909 5909 5909 5908
5830 5828 5827 5826 5825 5824 5823 5822 5822 5821 5820 5820 5820 5819 5819 5820 5821 5823 5823 5823 5823 5824 5825 5827 5830 5832 5836 5837 5835 5835 5836 5837 5840 5842 5845 5846 5844 5844 5845 5848 5849 5850 5851 5851 5852 5853 5853 5855 5857 5859 5860 5861 5863 5866 5867 5867 5871 5874 5876 5879 5880 5882 5883 5884 5885 5886 5887 5887 5888 5891 5894 5893 5890 5892 5896 5900 5902 5904 5905 5906 5906 5906 5907 5908 5908 5908 5908 5908
5825 5823 5821 5820 5819 5818 5817 5816 5816 5815 5815 5814 5814 5814 5814 5815 5816 5818 5818 5817 5818 5818 5818 5821 5823 5826 5830 5831 5831 5831 5831 5832 5835 5839 5842 5843 5842 5842 5842 5844 5845 5846 5847 5847 5849 5850 5851 5853 5854 5855 5856 5858 5861 5862 5863 5867 5871 5873 5875 5877 5878 5880 5881 5882 5884 5885 5886 5887 5888 5890 5891 5891 5889 5890 5893 5897 5900 5903 5905 5906 5906 5906 5907 5908 5908 5908 5908 5907
5819 5817 5815 5814 5813 5812 5810 5810 5809 5809 5808 5807 5807 5808 5808 5809 5810 5812 5812 5812 5812 5811 5811 5814 5817 5820 5824 5825 5825 5825 5826 5827 5829 5833 5837 5838 5839 5839 5839 5840 5840 5841 5843 5844 5847 5847 5848 5849 5849 5851 5854 5857 5860 5861 5864 5868 5870 5870 5872 5874 5876 5878 5880 5881 5882 5883 5884 5885 5887 5889 5890 5888 5887 5889 5891 5895 5899 5901 5903 5904 5905 5906 5907 5907 5907 5907 5907 5907
5813 5811 5809 5807 5806 5805 5804 5803 5802 5802 5802 5801 5800 5801 5801 5803 5805 5806 5807 5806 5803 5804 5807 5808 5811 5815 5819 5820 5818 5819 5821 5822 5824 5827 5831 5832 5833 5834 5835 5836 5836 5836 5839 5842 5845 5845 5845 5844 5846 5851 5855 5857 5859 5860 5863 5866 5866 5867 5869 5871 5873 5875 5878 5879 5880 5882 5883 5884 5885 5888 5889 5886 5885 5888 5890 5894 5898 5900 5901 5903 5905 5906 5907 5906 5906 5906 5906 5907
5806 5804 5802 5800 5799 5798 5796 5795 5795 5794 5794 5794 5793 5794 5794 5796 5798 5799 5803 5801 5793 5796 5803 5802 5804 5809 5813 5813 5810 5812 5815 5817 5819 5821 5824 5827 5827 5827 5829 5832 5832 5833 5837 5840 5840 5840 5838 5839 5846 5853 5854 5854 5855 5857 5859 5861 5862 5864 5866 5869 5870 5872 5875 5877 5879 5881 5882 5883 5884 5886 5887 5885 5884 5886 5888 5892 5896 5898 5900 5902 5904 5905 5906 5906 5906 5905 5906 5906
5799 5797 5795 5793 5791 5790 5789 5787 5787 5786 5786 5786 5785 5786 5786 5788 5790 5791 5796 5796 5787 5789 5794 5794 5797 5801 5805 5806 5802 5803 5809 5812 5814 5815 5817 5820 5820 5822 5825 5827 5829 5832 5835 5834 5833 5833 5833 5840 5849 5851 5849 5850 5851 5852 5854 5857 5858 5860 5863 5865 5867 5870 5874 5875 5876 5878 5880 5882 5883 5883 5885 5884 5882 5884 5887 5890 5894 5897 5899 5901 5902 5904 5905 5905 5905 5904 5904 5905
5792 5790 5788 5787 5784 5782 5781 5779 5779 5778 5777 5777 5777 5778 5778 5779 5782 5783 5787 5787 5783 5784 5785 5785 5790 5793 5799 5801 5795 5796 5803 5806 5808 5809 5810 5813 5815 5818 5819 5821 5825 5829 5829 5827 5828 5830 5833 5843 5849 5846 5845 5846 5848 5849 5851 5852 5853 5855 5858 5860 5864 5869 5872 5873 5874 5875 5877 5880 5883 5883 5884 5883 5880 5881 5883 5886 5891 5894 5896 5898 5900 5901 5903 5904 5904 5904 5904 5904
5785 5782 5780 5779 5777 5775 5774 5772 5771 5770 5769 5769 5768 5769 5770 5771 5773 5776 5777 5775 5775 5779 5778 5779 5783 5786 5791 5793 5789 5790 5796 5799 5802 5803 5804 5806 5809 5812 5813 5816 5820 5822 5824 5824 5825 5827 5833 5841 5842 5838 5840 5843 5844 5846 5846 5847 5849 5852 5855 5858 5863 5868 5871 5873 5873 5873 5874 5876 5879 5881 5883 5882 5878 5877 5878 5882 5886 5890 5892 5894 5896 5899 5900 5901 5902 5903 5903 5903
5778 5775 5773 5772 5770 5767 5766 5764 5762 5761 5761 5760 5760 5760 5760 5762 5763 5766 5769 5766 5766 5772 5772 5773 5777 5777 5781 5785 5785 5784 5787 5793 5796 5797 5799 5800 5802 5805 5807 5810 5812 5815 5819 5820 5821 5823 5830 5835 5834 5833 5835 5837 5840 5842 5843 5845 5847 5849 5852 5856 5862 5866 5869 5871 5871 5870 5870 5871 5874 5878 5879 5880 5878 5875 5876 5879 5883 5886 5889 5891 5893 5896 5897 5899 5900 5901 5902 5901
5771 5768 5765 5764 5763 5761 5758 5757 5755 5754 5753 5751 5751 5751 5751 5752 5752 5756 5759 5755 5758 5765 5764 5765 5769 5769 5773 5777 5779 5778 5781 5787 5788 5788 5792 5794 5795 5798 5800 5802 5806 5809 5813 5816 5816 5818 5825 5829 5828 5828 5830 5833 5836 5838 5840 5842 5844 5846 5851 5856 5860 5862 5865 5867 5868 5866 5866 5869 5872 5874 5875 5878 5878 5875 5875 5878 5880 5883 5886 5888 5890 5892 5894 5896 5898 5899 5900 5900
5764 5762 5759 5757 5756 5755 5753 5751 5749 5748 5747 5745 5744 5743 5743 5744 5743 5746 5749 5746 5751 5758 5756 5757 5760 5763 5765 5767 5772 5774 5775 5780 5781 5781 5785 5788 5789 5791 5793 5795 5799 5803 5806 5808 5808 5813 5821 5823 5822 5823 5826 5829 5831 5834 5838 5840 5841 5845 5851 5854 5855 5858 5860 5864 5865 5863 5864 5868 5868 5868 5872 5876 5876 5875 5876 5877 5877 5879 5882 5885 5887 5889 5891 5893 5896 5897 5898 5898
5759 5756 5754 5751 5749 5749 5748 5746 5744 5742 5741 5740 5739 5738 5737 5737 5735 5737 5739 5738 5743 5748 5748 5749 5752 5756 5757 5758 5764 5766 5765 5770 5772 5773 5777 5779 5782 5784 5787 5789 5792 5796 5799 5801 5805 5812 5818 5818 5819 5821 5823 5825 5829 5834 5838 5838 5839 5844 5849 5849 5851 5854 5856 5861 5863 5862 5864 5865 5862 5863 5867 5870 5872 5875 5876 5876 5875 5876 5879 5882 5884 5886 5889 5891 5893 5895 5896 5896
5755 5751 5750 5747 5744 5743 5742 5741 5740 5738 5736 5735 5734 5733 5732 5732 5730 5731 5731 5731 5735 5739 5740 5743 5744 5747 5749 5750 5753 5753 5754 5757 5758 5761 5765 5766 5770 5774 5778 5782 5785 5789 5793 5796 5801 5807 5810 5812 5814 5815 5818 5822 5828 5832 5833 5833 5835 5842 5845 5845 5847 5850 5852 5857 5858 5860 5862 5859 5857 5860 5862 5864 5868 5872 5874 5873 5871 5873 5877 5881 5881 5884 5887 5889 5891 5893 5893 5894
5751 5748 5746 5744 5740 5738 5735 5734 5733 5733 5731 5730 5729 5729 5728 5727 5725 5726 5725 5725 5728 5730 5732 5734 5734 5736 5740 5740 5739 5739 5743 5745 5745 5751 5754 5755 5760 5765 5769 5774 5776 5780 5786 5789 5793 5798 5802 5805 5806 5808 5813 5819 5823 5826 5827 5829 5832 5837 5839 5840 5842 5844 5848 5851 5853 5858 5857 5851 5853 5860 5860 5860 5862 5866 5869 5868 5868 5871 5876 5879 5879 5882 5884 5886 5889 5890 5891 5892
5748 5744 5742 5740 5737 5734 5731 5728 5727 5727 5726 5725 5725 5724 5723 5722 5720 5721 5719 5718 5721 5723 5724 5725 5725 5728 5730 5728 5727 5732 5737 5738 5738 5741 5743 5745 5752 5756 5760 5765 5768 5772 5776 5779 5784 5788 5792 5796 5800 5804 5809 5813 5816 5819 5822 5824 5828 5831 5833 5835 5837 5839 5842 5844 5847 5850 5846 5843 5852 5859 5859 5857 5855 5859 5864 5865 5867 5870 5873 5876 5878 5880 5883 5884 5886 5887 5888 5890
5744 5741 5738 5735 5732 5729 5727 5724 5723 5722 5721 5720 5720 5719 5718 5716 5715 5716 5715 5713 5714 5716 5717 5718 5717 5720 5720 5717 5723 5729 5729 5729 5730 5733 5736 5740 5744 5749 5754 5758 5762 5764 5768 5773 5776 5778 5785 5792 5796 5799 5804 5807 5809 5813 5816 5818 5821 5824 5826 5828 5830 5833 5836 5836 5838 5839 5836 5840 5852 5858 5857 5853 5851 5856 5861 5863 5866 5868 5869 5874 5876 5878 5881 5882 5884 5885 5886 5887
5740 5737 5733 5730 5728 5724 5722 5720 5719 5717 5715 5714 5714 5713 5712 5711 5709 5711 5711 5709 5710 5710 5711 5711 5711 5712 5710 5711 5719 5721 5717 5719 5723 5727 5731 5734 5737 5743 5749 5754 5758 5761 5765 5769 5769 5771 5780 5786 5789 5794 5799 5801 5803 5806 5810 5811 5814 5818 5821 5823 5825 5827 5830 5831 5833 5834 5835 5841 5850 5855 5854 5849 5848 5854 5859 5860 5863 5865 5867 5871 5874 5876 5878 5880 5881 5883 5884 5885
5736 5733 5729 5726 5723 5719 5717 5716 5714 5712 5710 5709 5708 5706 5706 5704 5704 5705 5705 5705 5705 5704 5704 5705 5705 5705 5703 5705 5711 5710 5709 5714 5717 5719 5723 5726 5728 5734 5739 5745 5751 5755 5758 5758 5759 5765 5772 5777 5784 5790 5792 5794 5797 5801 5806 5810 5813 5817 5820 5823 5824 5827 5829 5831 5833 5834 5836 5841 5847 5851 5848 5844 5846 5852 5856 5859 5861 5863 5864 5867 5871 5873 5875 5877 5879 5880 5882 5883
5730 5728 5725 5722 5718 5714 5712 5711 5709 5707 5705 5703 5701 5700 5699 5698 5698 5699 5698 5699 5699 5698 5699 5699 5700 5701 5698 5698 5701 5702 5706 5710 5710 5713 5716 5718 5721 5724 5728 5732 5734 5735 5737 5739 5747 5755 5759 5769 5780 5783 5785 5790 5796 5800 5804 5807 5810 5815 5819 5819 5820 5824 5828 5830 5832 5834 5837 5839 5843 5845 5841 5841 5847 5850 5854 5858 5859 5861 5862 5863 5866 5868 5871 5874 5875 5878 5880 5881
5724 5722 5720 5717 5714 5709 5707 5705 5703 5701 5699 5697 5695 5694 5693 5692 5692 5693 5692 5692 5692 5693 5694 5694 5694 5695 5693 5693 5695 5696 5701 5703 5703 5706 5709 5711 5713 5715 5718 5720 5719 5719 5722 5730 5741 5748 5753 5764 5773 5775 5780 5787 5793 5797 5800 5802 5806 5810 5812 5814 5818 5823 5825 5827 5830 5833 5835 5835 5836 5839 5839 5842 5846 5847 5851 5855 5857 5858 5859 5860 5862 5865 5867 5870 5872 5875 5878 5879
5719 5716 5714 5712 5709 5705 5702 5700 5697 5695 5693 5692 5690 5688 5687 5686 5686 5686 5685 5685 5685 5686 5688 5688 5688 5688 5688 5689 5691 5691 5694 5695 5697 5699 5701 5704 5706 5706 5708 5711 5712 5714 5719 5728 5739 5744 5750 5758 5764 5768 5775 5783 5789 5793 5795 5797 5802 5805 5808 5813 5818 5821 5821 5823 5826 5827 5829 5829 5831 5834 5838 5841 5842 5844 5848 5852 5854 5855 5855 5857 5860 5862 5864 5866 5869 5873 5876 5877
5713 5710 5708 5706 5704 5700 5696 5694 5691 5689 5687 5686 5683 5681 5680 5679 5679 5679 5679 5679 5679 5679 5681 5681 5681 5681 5682 5684 5683 5683 5685 5689 5691 5692 5693 5696 5699 5700 5702 5704 5707 5711 5716 5725 5734 5737 5741 5747 5754 5762 5770 5777 5783 5786 5788 5791 5796 5801 5807 5811 5813 5814 5815 5817 5819 5821 5823 5825 5827 5831 5835 5837 5838 5841 5847 5850 5851 5853 5853 5854 5856 5858 5861 5864 5866 5870 5873 5875
5708 5705 5703 5701 5698 5695 5691 5688 5686 5684 5681 5679 5677 5675 5673 5672 5672 5672 5673 5673 5672 5672 5673 5673 5673 5674 5675 5676 5675 5675 5677 5682 5685 5685 5686 5688 5690 5693 5697 5699 5701 5706 5713 5721 5727 5730 5734 5739 5748 5759 5766 5770 5773 5775 5780 5785 5791 5797 5801 5804 5806 5809 5812 5814 5816 5819 5820 5822 5824 5828 5831 5833 5836 5841 5845 5847 5849 5851 5851 5851 5853 5856 5858 5861 5864 5867 5869 5872
5705 5701 5699 5697 5694 5691 5687 5684 5681 5678 5676 5673 5670 5668 5667 5666 5665 5665 5667 5667 5666 5666 5666 5666 5667 5667 5668 5669 5668 5668 5671 5674 5675 5677 5678 5679 5682 5687 5692 5694 5695 5700 5707 5713 5717 5724 5730 5734 5745 5756 5759 5760 5763 5768 5776 5783 5787 5790 5792 5794 5799 5803 5807 5811 5814 5816 5818 5819 5822 5825 5827 5830 5836 5840 5842 5843 5845 5847 5848 5849 5852 5854 5856 5858 5862 5865 5867 5869
5703 5698 5695 5693 5691 5687 5683 5679 5676 5672 5669 5667 5664 5662 5662 5662 5660 5658 5660 5661 5660 5660 5660 5660 5660 5660 5661 5661 5660 5660 5663 5664 5665 5668 5669 5671 5676 5681 5685 5689 5692 5696 5701 5706 5712 5719 5724 5727 5739 5748 5749 5751 5758 5766 5776 5783 5785 5787 5788 5790 5795 5799 5802 5805 5807 5810 5814 5816 5819 5823 5826 5830 5835 5837 5838 5840 5842 5844 5846 5847 5849 5852 5854 5856 5859 5862 5864 5866
5701 5696 5694 5691 5688 5684 5680 5675 5671 5667 5663 5660 5658 5656 5656 5656 5654 5652 5653 5655 5655 5654 5654 5654 5654 5654 5654 5652 5653 5654 5653 5653 5655 5658 5660 5664 5670 5675 5679 5684 5688 5691 5696 5701 5706 5712 5718 5723 5732 5740 5743 5749 5758 5765 5771 5776 5781 5785 5786 5789 5794 5796 5798 5801 5803 5807 5811 5814 5817 5822 5823 5827 5832 5833 5835 5838 5840 5841 5842 5843 5845 5848 5851 5853 5856 5859 5861 5864
5699 5693 5690 5688 5685 5680 5677 5672 5667 5663 5658 5655 5653 5651 5651 5650 5648 5648 5649 5650 5650 5649 5649 5648 5648 5649 5648 5646 5647 5646 5642 5641 5644 5647 5652 5660 5665 5670 5675 5678 5681 5685 5690 5695 5700 5707 5714 5719 5727 5736 5742 5749 5756 5761 5762 5767 5773 5778 5781 5785 5790 5793 5797 5801 5804 5808 5811 5813 5817 5819 5819 5824 5829 5830 5831 5835 5837 5838 5839 5839 5842 5845 5848 5851 5854 5856 5858 5861
5696 5691 5686 5683 5681 5677 5673 5669 5665 5660 5655 5651 5648 5646 5645 5644 5644 5644 5644 5645 5645 5645 5645 5644 5643 5643 5643 5642 5640 5638 5636 5634 5635 5640 5650 5656 5659 5664 5669 5672 5676 5681 5685 5690 5695 5701 5707 5713 5721 5732 5739 5745 5751 5756 5758 5760 5765 5770 5776 5780 5785 5789 5793 5797 5801 5804 5806 5809 5814 5815 5816 5822 5827 5826 5828 5832 5833 5835 5836 5837 5840 5842 5845 5849 5851 5854 5856 5858
5693 5689 5684 5679 5676 5673 5668 5665 5661 5657 5653 5649 5645 5642 5640 5639 5639 5639 5639 5640 5640 5640 5641 5640 5639 5638 5638 5637 5635 5633 5633 5630 5630 5638 5646 5648 5652 5658 5663 5667 5672 5676 5680 5684 5689 5693 5700 5707 5714 5723 5730 5736 5742 5748 5752 5755 5758 5763 5770 5776 5780 5784 5787 5792 5796 5798 5800 5805 5809 5811 5814 5821 5824 5824 5826 5830 5831 5832 5834 5835 5838 5840 5843 5846 5849 5851 5853 5855
5689 5686 5682 5677 5673 5669 5665 5661 5657 5654 5650 5646 5642 5639 5637 5636 5635 5635 5636 5636 5637 5637 5637 5636 5635 5634 5633 5633 5631 5629 5629 5627 5628 5634 5637 5640 5647 5653 5657 5663 5668 5671 5674 5678 5682 5688 5694 5699 5705 5714 5722 5729 5736 5743 5747 5750 5753 5757 5763 5769 5776 5780 5783 5788 5791 5793 5798 5803 5806 5808 5813 5819 5821 5821 5824 5827 5829 5830 5832 5834 5836 5838 5841 5844 5846 5848 5850 5853
5686 5682 5678 5675 5670 5665 5661 5658 5654 5649 5646 5642 5638 5636 5634 5633 5633 5633 5633 5633 5633 5633 5633 5632 5631 5630 5629 5629 5627 5625 5625 5625 5627 5628 5629 5634 5641 5647 5652 5658 5662 5665 5668 5672 5677 5683 5687 5692 5699 5709 5718 5725 5733 5739 5742 5746 5750 5754 5757 5763 5770 5775 5779 5783 5786 5790 5796 5800 5803 5807 5812 5816 5818 5819 5822 5825 5826 5828 5830 5831 5834 5837 5839 5841 5844 5846 5848 5850
5683 5678 5674 5671 5668 5663 5658 5654 5650 5645 5641 5638 5635 5633 5631 5631 5631 5631 5630 5630 5629 5629 5629 5628 5627 5626 5626 5625 5624 5622 5622 5623 5623 5622 5623 5629 5635 5640 5645 5650 5654 5659 5663 5667 5672 5677 5682 5687 5694 5704 5714 5722 5729 5733 5736 5741 5747 5750 5754 5758 5764 5771 5775 5778 5782 5788 5793 5796 5801 5806 5809 5813 5816 5817 5819 5822 5823 5826 5827 5829 5832 5835 5837 5839 5842 5844 5845 5847
5681 5676 5672 5668 5665 5660 5656 5652 5647 5643 5639 5635 5633 5631 5630 5629 5628 5628 5628 5627 5626 5625 5625 5625 5623 5622 5622 5621 5620 5619 5619 5619 5619 5618 5619 5623 5629 5635 5639 5643 5648 5654 5659 5663 5668 5673 5678 5683 5690 5700 5710 5719 5725 5729 5733 5738 5743 5747 5751 5755 5761 5766 5771 5776 5781 5786 5790 5794 5800 5804 5806 5811 5815 5816 5817 5819 5821 5823 5825 5826 5828 5831 5834 5837 5840 5842 5844 5845
5678 5674 5670 5666 5662 5658 5654 5650 5646 5641 5638 5634 5631 5629 5628 5627 5626 5626 5625 5624 5623 5622 5621 5621 5620 5619 5619 5618 5617 5616 5615 5615 5614 5614 5616 5619 5624 5630 5635 5638 5642 5648 5654 5659 5665 5671 5675 5680 5688 5697 5707 5715 5721 5727 5732 5736 5741 5745 5750 5754 5759 5764 5769 5775 5780 5783 5788 5792 5796 5800 5803 5807 5812 5814 5816 5816 5818 5820 5822 5823 5825 5828 5832 5835 5837 5840 5842 5844
5676 5672 5668 5664 5661 5656 5651 5648 5645 5640 5637 5634 5631 5628 5626 5624 5623 5623 5622 5621 5620 5619 5618 5617 5617 5616 5616 5615 5614 5612 5612 5612 5610 5611 5613 5615 5619 5626 5631 5634 5637 5642 5649 5654 5661 5668 5672 5678 5686 5695 5703 5710 5716 5723 5729 5734 5740 5746 5750 5754 5759 5764 5768 5772 5777 5782 5786 5790 5794 5797 5801 5804 5808 5811 5812 5814 5816 5818 5819 5820 5822 5826 5830 5833 5836 5838 5840 5843
5674 5670 5666 5662 5659 5655 5650 5646 5643 5640 5636 5633 5630 5627 5625 5623 5621 5620 5620 5618 5616 5615 5615 5615 5614 5614 5613 5612 5611 5610 5610 5609 5608 5609 5610 5612 5615 5620 5625 5628 5632 5637 5643 5649 5656 5664 5670 5676 5683 5692 5700 5706 5712 5719 5726 5732 5739 5743 5746 5750 5756 5760 5764 5769 5775 5781 5783 5787 5791 5795 5800 5804 5806 5808 5809 5811 5813 5815 5816 5817 5819 5824 5828 5832 5834 5837 5839 5841